Location: Monroe
(41.9160°N, 83.3980°W)
Time: 10:11:24
(UTC-04:00)

Amateur Radio Satellites - All Passes

Search period start: 30 March 2015 09:41
Search period end: 31 March 2015 09:41
Location: Monroe, 41.9160°N, 83.3980°W

Satellite Date Start Highest point End Downlink Frequencies (MHz)
Time Altitude Azimuth
CANX-2 30 Mar 09:45:27 09:49:17 31° 95° (E) 09:53:09 2200.000
VERMONT LUNAR 30 Mar 09:46:21 09:49:36 49° 194° (SSW) 09:52:52 437.305
CUTE 1.7 + AOD 2 30 Mar 09:59:06 10:03:09 40° 97° (E) 10:07:14 437.475
DOVE 4 30 Mar 10:01:47 10:05:45 35° 97° (E) 10:09:57 437.250
DANDE 30 Mar 10:11:19 10:14:20 18° 264° (W) 10:17:43 436.750
GOMX 1 30 Mar 10:16:54 10:21:11 76° 102° (ESE) 10:25:42 467.674
AAUSAT CUBESAT 2 30 Mar 10:20:20 10:24:20 40° 97° (E) 10:28:20 437.432
BEESAT 2 30 Mar 10:22:46 10:25:58 23° 113° (ESE) 10:29:16 435.950
NANOSAT C BR1 30 Mar 10:23:38 10:24:09 10° 62° (ENE) 10:24:55 145.865
HO-68 30 Mar 10:26:05 10:33:18 73° 104° (ESE) 10:40:30 435.675
SEEDS 30 Mar 10:26:55 10:31:12 69° 101° (E) 10:35:28 437.485
POLYITAN 1 30 Mar 10:27:39 10:29:09 12° 63° (ENE) 10:30:51 437.675
PHONESAT 2.4 30 Mar 10:33:53 10:37:20 52° 193° (SSW) 10:40:47 2401.200-2431.200
UNISAT 6 30 Mar 10:34:38 10:38:09 26° 69° (ENE) 10:41:50 437.425
DX 1 30 Mar 10:37:08 10:37:51 10° 88° (E) 10:38:51 434.975-435.025
TIGRISAT 30 Mar 10:44:12 10:47:57 32° 70° (ENE) 10:51:49 435.000
COMPASS 1 30 Mar 10:48:02 10:52:19 84° 283° (WNW) 10:56:33 437.405
Oscar 11 30 Mar 10:52:09 10:56:19 43° 98° (E) 11:00:29 145.826/435.025
BEESAT 3 30 Mar 10:57:48 11:01:50 64° 120° (ESE) 11:05:57 437.485
QB50P1 30 Mar 11:02:06 11:05:37 27° 69° (ENE) 11:09:13 145.935-145.965
DUCHIFAT 1 30 Mar 11:03:25 11:06:57 27° 69° (ENE) 11:10:32 145.980
FUNcube-1 30 Mar 11:04:32 11:08:26 31° 96° (E) 11:12:26 145.935
UWE-3 30 Mar 11:10:57 11:15:12 45° 99° (E) 11:19:34 435.000/436.395/437.385
CINEMA 3 30 Mar 11:11:51 11:16:17 79° 283° (WNW) 11:20:53 145.822/145.860
BRITE-PL 30 Mar 11:14:04 11:17:00 18° 293° (WNW) 11:19:54 437.365/2234.400
ANTELSAT 30 Mar 11:14:25 11:18:40 72° 75° (ENE) 11:23:00 437.575/2403.000
QB50P2 30 Mar 11:16:48 11:20:43 39° 72° (ENE) 11:24:41 145.880/145.840
ZACube-1 30 Mar 11:17:34 11:21:46 43° 98° (E) 11:26:03 437.345
CUBEBUG 2 30 Mar 11:17:47 11:22:12 66° 101° (E) 11:26:45 437.445
VELOX 1 30 Mar 11:19:27 11:21:39 14° 89° (E) 11:24:04 145.980
CANX-2 30 Mar 11:21:37 11:25:07 24° 291° (WNW) 11:28:31 2200.000
AISAT 30 Mar 11:24:07 11:26:49 16° 91° (E) 11:29:42 437.250
VERMONT LUNAR 30 Mar 11:24:44 11:26:53 16° 209° (SSW) 11:29:00 437.305
DELFI C3 30 Mar 11:29:32 11:33:40 89° 92° (E) 11:37:46 145.870
CUTE 1.7 + AOD 2 30 Mar 11:35:44 11:38:51 19° 293° (WNW) 11:41:50 437.475
AIST 2 30 Mar 11:39:02 11:43:09 50° 118° (ESE) 11:47:20 435.215
BUGSAT 1 30 Mar 11:39:30 11:43:30 49° 73° (ENE) 11:47:30 437.445
DOVE 4 30 Mar 11:40:01 11:43:25 22° 291° (WNW) 11:46:50 437.250
POPSAT HIP 1 30 Mar 11:45:02 11:49:15 81° 78° (ENE) 11:53:29 437.405
NANOSAT C BR1 30 Mar 11:55:16 11:59:29 78° 259° (W) 12:03:42 145.865
ESTCUBE 1 30 Mar 11:56:27 11:59:35 19° 91° (E) 12:02:51 437.505/2401.250
AAUSAT CUBESAT 2 30 Mar 11:56:44 11:59:43 18° 293° (WNW) 12:02:34 437.432
GOMX 1 30 Mar 11:57:51 11:58:54 11° 296° (WNW) 11:59:43 467.674
UKube-1 30 Mar 11:58:50 12:03:12 84° 106° (ESE) 12:07:30 .
BEESAT 2 30 Mar 12:00:06 12:03:56 36° 310° (NW) 12:07:49 435.950
POLYITAN 1 30 Mar 12:00:25 12:04:37 66° 259° (W) 12:08:48 437.675
HUMSAT D 30 Mar 12:01:08 12:05:23 66° 101° (E) 12:09:39 437.325/437.525
SEEDS 30 Mar 12:04:51 12:06:31 12° 297° (WNW) 12:07:58 437.485
DX 1 30 Mar 12:10:21 12:14:41 69° 285° (WNW) 12:18:59 434.975-435.025
UNISAT 6 30 Mar 12:11:16 12:14:56 27° 266° (W) 12:18:36 437.425
PHONESAT 2.4 30 Mar 12:12:47 12:15:16 18° 209° (SSW) 12:17:43 2401.200-2431.200
HO-68 30 Mar 12:14:53 12:20:27 24° 302° (WNW) 12:25:47 435.675
TIGRISAT 30 Mar 12:21:27 12:24:50 22° 267° (W) 12:28:08 435.000
Oscar 11 30 Mar 12:29:09 12:32:13 18° 294° (WNW) 12:35:10 145.826/435.025
YUBILEINY 30 Mar 12:34:40 12:35:30 10° 74° (ENE) 12:37:09 435.215
50 SAT 30 Mar 12:36:30 12:40:33 73° 284° (WNW) 12:44:35 437.505
BEESAT 3 30 Mar 12:37:37 12:40:20 17° 319° (NW) 12:42:59 437.485
QB50P1 30 Mar 12:37:54 12:41:29 26° 265° (W) 12:45:00 145.935-145.965
DUCHIFAT 1 30 Mar 12:39:13 12:42:46 25° 265° (W) 12:46:16 145.980
FUNcube-1 30 Mar 12:41:03 12:44:41 25° 291° (WNW) 12:48:18 145.935
TISAT 1 30 Mar 12:45:06 12:46:11 11° 88° (E) 12:47:32 437.305
UWE-3 30 Mar 12:48:25 12:51:28 18° 293° (WNW) 12:54:27 435.000/436.395/437.385
CUBEBUG 1 30 Mar 12:51:24 12:55:43 65° 101° (E) 13:00:00 437.445
QB50P2 30 Mar 12:53:55 12:56:51 18° 269° (W) 12:59:38 145.880/145.840
VELOX 1 30 Mar 12:54:19 12:58:38 54° 287° (WNW) 13:02:55 145.980
ZACube-1 30 Mar 12:54:45 12:57:53 19° 293° (WNW) 13:00:55 437.345
CUBEBUG 2 30 Mar 12:56:17 12:58:28 13° 296° (WNW) 13:00:29 437.445
SPROUT 30 Mar 12:57:27 13:00:31 19° 92° (E) 13:03:41 437.525
AISAT 30 Mar 12:59:30 13:03:45 46° 288° (WNW) 13:07:57 437.250
Oscar 19 30 Mar 13:06:53 13:10:42 22° 65° (ENE) 13:14:39 437.125/150
BUGSAT 1 30 Mar 13:17:06 13:19:20 14° 270° (W) 13:21:21 437.445
AIST 2 30 Mar 13:18:46 13:22:03 20° 317° (NW) 13:25:16 435.215
ESTCUBE 1 30 Mar 13:32:26 13:36:43 42° 289° (WNW) 13:40:55 437.505/2401.250
Gurwin Techsat 1B 30 Mar 13:33:18 13:34:26 11° 58° (ENE) 13:35:51 435.225
UKube-1 30 Mar 13:38:11 13:38:46 10° 299° (WNW) 13:39:06 .
HUMSAT D 30 Mar 13:38:51 13:40:42 12° 296° (WNW) 13:42:21 437.325/437.525
O/OREOS (USA 219) 30 Mar 13:45:15 13:48:57 24° 56° (NE) 13:52:40 437.305
SWISSCUBE 30 Mar 13:58:14 14:00:25 13° 88° (E) 14:02:49 437.505
BEESAT 30 Mar 14:01:04 14:03:10 13° 88° (E) 14:05:31 436.000
ITAMSAT 1 30 Mar 14:13:53 14:18:23 31° 67° (ENE) 14:22:58 435.822/435.867
TISAT 1 30 Mar 14:18:20 14:22:30 62° 286° (WNW) 14:26:37 437.305
YUBILEINY 30 Mar 14:22:07 14:30:42 62° 92° (E) 14:39:24 435.215
PCSat 30 Mar 14:28:06 14:31:59 21° 108° (ESE) 14:36:03 145.827
CUBEBUG 1 30 Mar 14:29:38 14:31:37 13° 297° (WNW) 14:33:25 437.445
SPROUT 30 Mar 14:32:49 14:36:46 36° 289° (WNW) 14:40:41 437.525
Oscar 19 30 Mar 14:44:51 14:49:47 47° 261° (W) 14:54:43 437.125/150
ITUPSAT 1 30 Mar 14:46:52 14:51:19 37° 97° (E) 14:55:46 437.325
AO-7 30 Mar 14:52:03 14:57:48 22° 53° (NE) 15:03:49 29.400- 29.500
HORYU 2 30 Mar 15:04:12 15:06:43 15° 64° (ENE) 15:09:24 437.375
Gurwin Techsat 1B 30 Mar 15:08:19 15:13:36 76° 75° (ENE) 15:18:58 435.225
AIST 1 30 Mar 15:11:33 15:14:39 19° 70° (ENE) 15:17:50
O/OREOS (USA 219) 30 Mar 15:24:19 15:28:29 35° 254° (WSW) 15:32:34 437.305
KKS-1 30 Mar 15:27:46 15:30:52 19° 92° (E) 15:34:06 437.445
SWISSCUBE 30 Mar 15:34:04 15:38:50 66° 286° (WNW) 15:43:33 437.505
BEESAT 30 Mar 15:36:49 15:41:36 67° 286° (WNW) 15:46:19 436.000
ITAMSAT 1 30 Mar 15:53:07 15:57:51 34° 264° (W) 16:02:33 435.822/435.867
STARS 30 Mar 15:56:46 16:00:20 24° 94° (E) 16:03:58 437.465
JAS-2 30 Mar 16:01:15 16:07:33 38° 65° (ENE) 16:14:30 435.910
PCSat 30 Mar 16:09:43 16:15:02 56° 304° (NW) 16:20:24 145.827
YUBILEINY 30 Mar 16:20:36 16:28:13 30° 294° (WNW) 16:35:39 435.215
ITUPSAT 1 30 Mar 16:25:09 16:29:03 24° 294° (WNW) 16:32:49 437.325
HORYU 2 30 Mar 16:38:37 16:42:58 55° 259° (W) 16:47:22 437.375
AO-7 30 Mar 16:41:20 16:49:40 89° 66° (ENE) 16:58:01 29.400- 29.500
AIST 1 30 Mar 16:48:33 16:52:29 34° 268° (W) 16:56:19
Gurwin Techsat 1B 30 Mar 16:51:36 16:54:18 13° 273° (W) 16:56:42 435.225
KKS-1 30 Mar 17:03:33 17:07:44 41° 289° (WNW) 17:11:54 437.445
MOZHAYETS 4 30 Mar 17:11:32 17:14:05 15° 89° (E) 17:16:50
STARS 30 Mar 17:32:56 17:36:51 31° 291° (WNW) 17:40:42 437.465
JAS-2 30 Mar 17:45:46 17:52:26 47° 265° (W) 17:59:43 435.910
PCSat 30 Mar 17:57:43 17:59:47 12° 326° (NNW) 18:01:39 145.827
M-CUBED/EXP-1 PRIME 30 Mar 17:59:17 18:01:56 15° 93° (E) 18:04:46 437.505
CUTE-I 30 Mar 18:22:46 18:27:42 40° 69° (ENE) 18:32:42 437.470
Cubesat XI-IV 30 Mar 18:23:17 18:28:16 41° 69° (ENE) 18:33:18 437.490
AO-7 30 Mar 18:38:01 18:43:39 19° 272° (W) 18:48:52 29.400- 29.500
BEESAT 2 30 Mar 18:41:37 18:44:38 19° 43° (NE) 18:47:41 435.950
GONETS M04 30 Mar 18:43:46 18:48:56 18° 79° (E) 18:54:37
MOZHAYETS 4 30 Mar 18:47:10 18:51:45 56° 286° (WNW) 18:56:16
CUBESAT XI-V 30 Mar 19:01:50 19:04:43 17° 90° (E) 19:07:45 437.345
AUBIESAT-1 30 Mar 19:06:51 19:11:41 64° 106° (ESE) 19:16:21 437.475
RS-15 30 Mar 19:07:03 19:16:56 44° 110° (ESE) 19:27:07 29.354- 29.394
HO-68 30 Mar 19:13:19 19:15:12 11° 49° (NE) 19:17:31 435.675
BEESAT 3 30 Mar 19:16:38 19:20:35 43° 51° (NE) 19:24:29 437.485
PRISM 30 Mar 19:18:16 19:20:58 17° 92° (E) 19:23:47 437.425
M-CUBED/EXP-1 PRIME 30 Mar 19:32:28 19:37:18 65° 291° (WNW) 19:42:00 437.505
SO-50 30 Mar 19:42:09 19:46:46 81° 122° (ESE) 19:51:35 436.795
AIST 2 30 Mar 20:00:37 20:04:37 38° 50° (NE) 20:08:33 435.215
CUTE-I 30 Mar 20:03:23 20:07:55 27° 266° (W) 20:12:24 437.470
Cubesat XI-IV 30 Mar 20:04:00 20:08:32 26° 266° (W) 20:12:57 437.490
BEESAT 2 30 Mar 20:19:03 20:23:06 50° 241° (WSW) 20:27:02 435.950
STRAND 1 30 Mar 20:19:18 20:24:18 53° 100° (E) 20:29:17 437.568
GONETS M04 30 Mar 20:36:01 20:44:44 88° 282° (WNW) 20:53:33
CUBESAT XI-V 30 Mar 20:38:02 20:42:31 49° 287° (WNW) 20:46:56 437.345
CANX-2 30 Mar 20:39:12 20:42:35 24° 69° (ENE) 20:46:04 2200.000
AUBIESAT-1 30 Mar 20:42:48 20:46:00 17° 302° (WNW) 20:49:01 437.475
BRITE-PL 30 Mar 20:46:00 20:50:29 49° 74° (ENE) 20:54:44 437.365/2234.400
CUTE 1.7 + AOD 2 30 Mar 20:52:35 20:56:16 30° 70° (ENE) 21:00:02 437.475
PRISM 30 Mar 20:52:45 20:56:41 39° 289° (WNW) 21:00:32 437.425
HO-68 30 Mar 20:54:38 21:01:34 56° 68° (ENE) 21:08:35 435.675
BEESAT 3 30 Mar 20:55:28 20:58:21 18° 248° (WSW) 21:01:05 437.485
DOVE 4 30 Mar 21:08:20 21:12:14 35° 72° (ENE) 21:16:05 437.250
AAUSAT CUBESAT 2 30 Mar 21:11:52 21:15:27 29° 70° (ENE) 21:19:07 437.432
RS-15 30 Mar 21:18:22 21:29:05 57° 313° (NW) 21:40:01 29.354- 29.394
SEEDS 30 Mar 21:19:19 21:23:23 49° 73° (ENE) 21:27:30 437.485
SO-50 30 Mar 21:24:46 21:27:59 17° 323° (NW) 21:31:10 436.795
GOMX 1 30 Mar 21:25:40 21:30:09 85° 77° (ENE) 21:34:25 467.674
DX 1 30 Mar 21:33:32 21:34:43 11° 62° (ENE) 21:36:08 434.975-435.025
COMPASS 1 30 Mar 21:39:30 21:43:39 69° 76° (ENE) 21:47:52 437.405
AIST 2 30 Mar 21:39:40 21:43:00 22° 247° (WSW) 21:46:13 435.215
DANDE 30 Mar 21:42:56 21:45:48 41° 98° (E) 21:48:20 436.750
Oscar 11 30 Mar 21:47:23 21:51:16 35° 71° (ENE) 21:55:14 145.826/435.025
STRAND 1 30 Mar 21:59:27 22:03:09 20° 296° (WNW) 22:06:43 437.568
FUNcube-1 30 Mar 22:01:23 22:04:43 24° 69° (ENE) 22:08:08 145.935
UWE-3 30 Mar 22:08:57 22:12:44 36° 72° (ENE) 22:16:36 435.000/436.395/437.385
ISS 30 Mar 22:13:20 22:15:12 15° 132° (SE) 22:17:09 145.825
CINEMA 3 30 Mar 22:14:19 22:18:31 82° 257° (WSW) 22:22:41 145.822/145.860
ZACube-1 30 Mar 22:14:22 22:18:06 34° 71° (ENE) 22:21:54 437.345
CANX-2 30 Mar 22:14:41 22:18:26 30° 265° (W) 22:22:10 2200.000
CUBEBUG 2 30 Mar 22:16:45 22:20:47 55° 74° (ENE) 22:24:52 437.445
DELFI C3 30 Mar 22:17:27 22:21:26 56° 74° (ENE) 22:25:28 145.870
VELOX 1 30 Mar 22:18:00 22:20:22 15° 64° (ENE) 22:22:53 145.980
AISAT 30 Mar 22:22:52 22:25:38 17° 65° (ENE) 22:28:33 437.250
BRITE-PL 30 Mar 22:26:29 22:29:20 15° 269° (W) 22:31:54 437.365/2234.400
CUSAT 1 30 Mar 22:28:12 22:30:20 20° 285° (WNW) 22:32:20 437.405
CUTE 1.7 + AOD 2 30 Mar 22:28:47 22:32:14 23° 267° (W) 22:35:37 437.475
GONETS M04 30 Mar 22:37:03 22:43:06 19° 301° (WNW) 22:48:46
HO-68 30 Mar 22:43:37 22:49:43 28° 267° (W) 22:55:40 435.675
DOVE 4 30 Mar 22:47:02 22:50:11 19° 267° (W) 22:53:09 437.250
AAUSAT CUBESAT 2 30 Mar 22:47:42 22:51:07 23° 267° (W) 22:54:29 437.432
HUMSAT D 30 Mar 22:53:31 22:57:26 46° 73° (ENE) 23:01:24 437.325/437.525
UKube-1 30 Mar 22:53:53 22:58:13 74° 74° (ENE) 23:02:34 .
ESTCUBE 1 30 Mar 22:56:48 23:00:00 20° 66° (ENE) 23:03:19 437.505/2401.250
SEEDS 30 Mar 22:57:12 22:59:33 14° 271° (W) 23:01:44 437.485
DX 1 30 Mar 23:06:03 23:10:25 77° 257° (WSW) 23:14:48 434.975-435.025
ANTELSAT 30 Mar 23:07:08 23:09:50 16° 90° (E) 23:12:44 437.575/2403.000
PCSat 30 Mar 23:14:32 23:18:40 22° 44° (NE) 23:22:54 145.827
50 SAT 30 Mar 23:22:44 23:26:36 67° 76° (ENE) 23:30:32 437.505
Oscar 11 30 Mar 23:24:16 23:27:35 21° 268° (W) 23:30:50 145.826/435.025
POPSAT HIP 1 30 Mar 23:31:48 23:33:38 13° 89° (E) 23:35:40 437.405
RS-15 30 Mar 23:36:02 23:44:41 25° 344° (NNW) 23:53:24 29.354- 29.394
FUNcube-1 30 Mar 23:37:26 23:41:00 27° 265° (W) 23:44:33 145.935
NANOSAT C BR1 30 Mar 23:41:07 23:43:45 16° 91° (E) 23:46:31 145.865
POLYITAN 1 30 Mar 23:46:25 23:49:27 19° 92° (E) 23:52:37 437.675
UWE-3 30 Mar 23:46:34 23:49:29 18° 268° (W) 23:52:17 435.000/436.395/437.385
CUBEBUG 1 30 Mar 23:47:45 23:52:03 56° 74° (ENE) 23:56:23 437.445
ISS 30 Mar 23:48:03 23:51:18 66° 329° (NNW) 23:54:32 145.825
ZACube-1 30 Mar 23:51:34 23:54:37 19° 268° (W) 23:57:36 437.345
VELOX 1 30 Mar 23:52:08 23:56:31 58° 259° (W) 00:00:55 145.980
SPROUT 30 Mar 23:52:41 23:55:23 17° 66° (ENE) 23:58:14 437.525
DELFI C3 30 Mar 23:55:30 23:57:04 12° 272° (W) 23:58:23 145.870
CUBEBUG 2 30 Mar 23:56:15 23:57:57 12° 272° (W) 23:59:27 437.445
AISAT 30 Mar 23:57:36 00:01:55 49° 261° (W) 00:06:14 437.250
UNISAT 6 31 Mar 00:01:45 00:06:18 58° 101° (E) 00:10:55 437.425
TIGRISAT 31 Mar 00:11:15 00:15:50 71° 102° (ESE) 00:20:29 435.000
QB50P1 31 Mar 00:21:59 00:26:05 47° 99° (E) 00:30:11 145.935-145.965
DUCHIFAT 1 31 Mar 00:22:57 00:27:01 47° 99° (E) 00:31:06 145.980
HUMSAT D 31 Mar 00:31:15 00:33:33 14° 270° (W) 00:35:39 437.325/437.525
ESTCUBE 1 31 Mar 00:32:16 00:36:37 43° 262° (W) 00:40:58 437.505/2401.250
YUBILEINY 31 Mar 00:32:16 00:39:46 31° 67° (ENE) 00:47:25 435.215
QB50P2 31 Mar 00:37:16 00:41:31 73° 102° (ESE) 00:45:46 145.880/145.840
ANTELSAT 31 Mar 00:42:30 00:46:59 54° 287° (WNW) 00:51:32 437.575/2403.000
BUGSAT 1 31 Mar 00:56:42 01:00:45 84° 102° (ESE) 01:04:47 437.445
PCSat 31 Mar 00:57:14 01:02:38 65° 243° (WSW) 01:07:58 145.827
SWISSCUBE 31 Mar 01:05:06 01:08:11 18° 64° (ENE) 01:11:25 437.505
POPSAT HIP 1 31 Mar 01:05:48 01:09:56 55° 286° (WNW) 01:14:04 437.405
BEESAT 31 Mar 01:07:51 01:10:52 17° 64° (ENE) 01:14:03 436.000
TISAT 1 31 Mar 01:10:40 01:14:53 81° 257° (WSW) 01:19:07 437.305
NANOSAT C BR1 31 Mar 01:15:51 01:19:52 42° 288° (WNW) 01:23:51 145.865
POLYITAN 1 31 Mar 01:21:37 01:25:32 36° 289° (WNW) 01:29:26 437.675
ISS 31 Mar 01:25:47 01:28:10 18° 346° (NNW) 01:30:32 145.825
CUBEBUG 1 31 Mar 01:26:33 01:28:51 13° 271° (W) 01:30:55 437.445
SPROUT 31 Mar 01:27:03 01:31:11 45° 261° (W) 01:35:19 437.525
UNISAT 6 31 Mar 01:39:52 01:42:42 16° 295° (WNW) 01:45:23 437.425
TIGRISAT 31 Mar 01:49:52 01:52:07 13° 296° (WNW) 01:54:09 435.000
RS-15 31 Mar 01:53:19 02:02:10 26° 19° (NNE) 02:11:30 29.354- 29.394
ITUPSAT 1 31 Mar 01:53:56 01:58:31 46° 71° (ENE) 02:03:09 437.325
QB50P1 31 Mar 01:58:58 02:01:39 16° 294° (WNW) 02:04:09 145.935-145.965
DUCHIFAT 1 31 Mar 01:59:54 02:02:32 16° 295° (WNW) 02:05:02 145.980
QB50P2 31 Mar 02:15:35 02:16:55 11° 297° (WNW) 02:18:02 145.880/145.840
KKS-1 31 Mar 02:26:45 02:29:49 19° 66° (ENE) 02:33:00 437.445
YUBILEINY 31 Mar 02:28:35 02:37:14 60° 268° (W) 02:45:44 435.215
SO-50 31 Mar 02:34:02 02:36:54 15° 35° (NE) 02:39:54 436.795
SWISSCUBE 31 Mar 02:40:56 02:45:39 55° 260° (W) 02:50:24 437.505
BEESAT 31 Mar 02:43:36 02:48:20 56° 260° (W) 02:53:04 436.000
STARS 31 Mar 02:54:26 02:57:51 23° 67° (ENE) 03:01:22 437.465
Oscar 19 31 Mar 02:55:44 03:00:51 60° 100° (E) 03:05:58 437.125/150
ISS 31 Mar 03:03:26 03:05:28 15° 7° (N) 03:07:32 145.825
Gurwin Techsat 1B 31 Mar 03:24:38 03:29:12 29° 94° (E) 03:33:50 435.225
ITUPSAT 1 31 Mar 03:33:09 03:36:41 20° 268° (W) 03:40:06 437.325
AIST 1 31 Mar 03:43:29 03:44:53 12° 85° (E) 03:46:31
O/OREOS (USA 219) 31 Mar 03:58:02 04:01:43 25° 103° (ESE) 04:05:29 437.305
KKS-1 31 Mar 04:01:59 04:06:12 42° 262° (W) 04:10:25 437.445
ITAMSAT 1 31 Mar 04:04:56 04:10:09 84° 103° (ESE) 04:15:20 435.822/435.867
RS-15 31 Mar 04:06:22 04:17:39 61° 48° (NE) 04:29:29 29.354- 29.394
SO-50 31 Mar 04:13:19 04:18:18 80° 56° (NE) 04:23:13 436.795
MOZHAYETS 4 31 Mar 04:14:15 04:16:57 16° 64° (ENE) 04:19:50
HORYU 2 31 Mar 04:29:54 04:33:43 27° 95° (E) 04:37:36 437.375
STARS 31 Mar 04:30:14 04:34:11 33° 263° (W) 04:38:08 437.465
Oscar 19 31 Mar 04:36:13 04:39:47 19° 297° (WNW) 04:43:12 437.125/150
ISS 31 Mar 04:39:32 04:42:34 36° 26° (NNE) 04:45:36 145.825
AO-7 31 Mar 04:43:13 04:50:04 29° 94° (E) 04:57:08 29.400- 29.500
M-CUBED/EXP-1 PRIME 31 Mar 04:48:06 04:51:01 19° 59° (ENE) 04:54:12 437.505
JAS-2 31 Mar 04:55:24 05:02:07 33° 91° (E) 05:08:26 435.910
Gurwin Techsat 1B 31 Mar 05:04:25 05:09:15 36° 291° (WNW) 05:14:02 435.225
AIST 1 31 Mar 05:17:42 05:22:04 61° 280° (W) 05:26:26
O/OREOS (USA 219) 31 Mar 05:36:48 05:41:00 34° 300° (WNW) 05:45:12 437.305
VERMONT LUNAR 31 Mar 05:43:20 05:46:13 28° 158° (SSE) 05:49:09 437.305
ITAMSAT 1 31 Mar 05:46:27 05:49:02 14° 300° (WNW) 05:51:23 435.822/435.867
MOZHAYETS 4 31 Mar 05:49:13 05:53:46 57° 260° (W) 05:58:22
AUBIESAT-1 31 Mar 05:55:19 05:59:23 84° 74° (ENE) 06:03:52 437.475
SO-50 31 Mar 05:55:52 05:58:18 13° 251° (WSW) 06:00:28 436.795
STRAND 1 31 Mar 06:00:57 06:02:05 11° 59° (ENE) 06:03:31 437.568
CUBESAT XI-V 31 Mar 06:05:50 06:08:59 19° 66° (ENE) 06:12:16 437.345
HORYU 2 31 Mar 06:06:26 06:10:22 29° 291° (WNW) 06:14:15 437.375
PRISM 31 Mar 06:09:39 06:11:58 15° 65° (ENE) 06:14:27 437.425
ISS 31 Mar 06:16:02 06:18:55 29° 223° (SW) 06:21:45 145.825
RS-15 31 Mar 06:19:12 06:29:53 44° 250° (WSW) 06:40:45 29.354- 29.394
M-CUBED/EXP-1 PRIME 31 Mar 06:21:41 06:25:34 44° 257° (WSW) 06:29:48 437.505
AO-7 31 Mar 06:35:18 06:43:28 64° 293° (WNW) 06:51:36 29.400- 29.500
PHONESAT 2.4 31 Mar 06:38:43 06:41:52 31° 158° (SSE) 06:45:02 2401.200-2431.200
JAS-2 31 Mar 06:39:59 06:47:29 53° 291° (WNW) 06:54:19 435.910
CUTE-I 31 Mar 06:40:51 06:43:39 15° 88° (E) 06:46:43 437.470
Cubesat XI-IV 31 Mar 06:41:30 06:44:26 15° 89° (E) 06:47:36 437.490
GONETS M04 31 Mar 06:45:57 06:54:23 48° 73° (ENE) 07:02:52
CUSAT 1 31 Mar 07:19:41 07:22:24 16° 72° (ENE) 07:25:47 437.405
VERMONT LUNAR 31 Mar 07:20:21 07:23:39 65° 174° (S) 07:26:59 437.305
STRAND 1 31 Mar 07:35:24 07:40:33 80° 75° (ENE) 07:45:43 437.568
CUBESAT XI-V 31 Mar 07:41:31 07:46:05 49° 261° (W) 07:50:41 437.345
PRISM 31 Mar 07:42:57 07:47:04 52° 260° (W) 07:51:13 437.425
PHONESAT 2.4 31 Mar 08:16:27 08:19:58 67° 175° (S) 08:23:29 2401.200-2431.200
CUTE-I 31 Mar 08:19:04 08:24:22 70° 286° (WNW) 08:29:38 437.470
DANDE 31 Mar 08:19:32 08:23:29 42° 79° (ENE) 08:28:46 436.750
Cubesat XI-IV 31 Mar 08:19:50 08:25:09 68° 287° (WNW) 08:30:25 437.490
JAS-2 31 Mar 08:28:21 08:30:52 11° 310° (NW) 08:32:52 435.910
AO-7 31 Mar 08:30:21 08:34:50 15° 313° (NW) 08:38:56 29.400- 29.500
GONETS M04 31 Mar 08:43:07 08:51:06 39° 273° (W) 08:58:57
BRITE-PL 31 Mar 08:51:22 08:53:23 13° 90° (E) 08:55:41 437.365/2234.400
VERMONT LUNAR 31 Mar 08:57:57 09:01:14 57° 191° (S) 09:04:33 437.305
CUSAT 1 31 Mar 09:00:51 09:05:14 57° 262° (W) 09:11:05 437.405
STRAND 1 31 Mar 09:18:17 09:20:28 12° 273° (W) 09:22:21 437.568
COMPASS 1 31 Mar 09:25:15 09:26:22 11° 87° (E) 09:27:45 437.405
GOMX 1 31 Mar 09:27:09 09:30:30 22° 94° (E) 09:34:04 467.674
